297  
NZUS01 KABQ 260710  
RWRABQ  
NEW MEXICO REGIONAL WEATHER ROUNDUP  
NATIONAL WEATHER SERVICE ALBUQUERQUE NM  
100 AM MDT THU APR 26 2018  
 
-----NORTHERN NEW MEXICO AND NEARBY AREAS-----  
 
 
CITY SKY/WX TMP DP RH WIND PRES REMARKS
 
ALBUQUERQUE FAIR 58 30 34 SW6 30.10R  
BELEN FAIR 56 30 36 SE7 30.09S  
SOCORRO FAIR 57 31 37 S9 30.08F  
 
CITY SKY/WX TMP DP RH WIND PRES REMARKS
 
SANTA FE CLEAR 49 31 49 SE7 30.14F  
LOS ALAMOS CLEAR 49 28 44 SW7 30.17F  
TAOS CLEAR 43 22 43 SW12 30.17S  
ANGEL FIRE FAIR 26 21 82 CALM 30.20S  
FARMINGTON CLEAR 49 0 13 W6 30.10S  
GRANTS CLEAR 43 8 23 NW10 30.20S  
GALLUP CLEAR 34 3 27 CALM 30.20S  
FLAGSTAFF CLEAR 39 17 41 CALM 30.23F  
DURANGO CLEAR 45 4 18 W9 30.13S  
 
CITY SKY/WX TMP DP RH WIND PRES REMARKS
 
ALAMOSA PTCLDY 41 12 30 E6 30.13S  
DENVER MOCLDY 50 27 40 W12 29.99S  
CLAYTON CLEAR 43 31 62 SW13 30.08F  
RATON PTCLDY 39 26 59 NW6 30.12F  
LAS VEGAS PTCLDY 40 30 67 S13 30.15F  
CLINES CORNERS CLEAR 45 31 58 SW15 30.17F  
SANTA ROSA FAIR 48 32 53 CALM 30.10F  
TUCUMCARI CLEAR 50 31 48 SW7 30.06F  
CLOVIS (AFB) CLEAR 44 30 56 S5 30.12F  
CLOVIS CLEAR 40 27 59 SW7 30.12F  
AMARILLO CLEAR 45 32 60 S12 30.09F  
 
-----SOUTHERN NEW MEXICO AND NEARBY AREAS-----  
 
 
CITY SKY/WX TMP DP RH WIND PRES REMARKS
 
T OR C CLEAR 65 34 31 S12 30.09S  
DEMING CLEAR 57 33 40 W8 30.09R  
TUCSON PTCLDY 71 18 13 SE3 29.99S  
EL PASO PTCLDY 60 40 47 S8 30.10S  
LAS CRUCES CLEAR 56 36 46 SE3 30.11S  
 
CITY SKY/WX TMP DP RH WIND PRES REMARKS
 
ALAMOGORDO CLEAR 57 37 47 S8 30.11S  
RUIDOSO PTCLDY 43 32 65 CALM 30.21F  
ROSWELL CLEAR 49 34 56 SW5 30.10F  
CARLSBAD CLEAR 48 37 65 S8 30.11F  
HOBBS CLEAR 45 36 70 SW6 30.14S  
 
CLICK HERE TO GO TO PREVIOUS BULLETINS.

The Nexlab NM Page Main Text Page